Regional Weather Roundup
Issued by NWS Grand Forks, ND

Home | Current Version | Previous Version | Text Only | Print | Product List | Glossary On
Versions: 1 2 3 4 5 6 7 8 9 10 11 12 13 14 15 16 17 18 19 20 21 22 23 24 25 26 27 28 29 30 31 32 33 34 35 36 37 38 39 40 41 42 43 44 45 46 47 48 49 50
000
ASUS43 KFGF 282331
RWRFGF
PRAIRIE TO PINES  WEATHER ROUNDUP
NATIONAL WEATHER SERVICE EASTERN NORTH DAKOTA/GRAND FORKS ND
600 PM CDT WED JUN 28 2017

 **SATELLITE DATA USED TO AUGMENT SKY COVER AT AUTOMATED STATIONS**
 *****  WEATHER ACROSS EASTERN NORTH DAKOTA  *****

CITY           SKY/WX    TMP DP  RH WIND       PRES   REMARKS
GRAND FORKS    CLOUDY    68  63  84 N9        29.61R
GRAND FRKS AFB PTSUNNY   68  63  83 N5        29.62S
DEVILS LAKE    FAIR      75  54  47 NW14      29.65R
FARGO          PTSUNNY   71  63  75 NW16      29.59R
WAHPETON ARPT  MOCLDY    73  59  60 NW21      29.59S
$$

 ***** WEATHER ACROSS CENTRAL AND WESTERN NORTH DAKOTA  *****

CITY           SKY/WX    TMP DP  RH WIND       PRES   REMARKS
BISMARCK       FAIR      82  44  26 N13       29.68F
MINOT          FAIR      81  44  27 NW17G26   29.68S
JAMESTOWN      FAIR      77  53  43 NW16      29.64R
MINOT AFB      FAIR      80  44  27 N13       29.67S
GARRISON         N/A     79  44  28 N10G22    29.69S
WILLISTON      LGT RAIN  70  48  45 NW16G29   29.75R
DICKINSON      FAIR      82  32  16 N6        29.72R
HETTINGER      FAIR      83  29  14 E6G17     29.74S
$$

 *****  OTHER AIRPORT OBSERVATIONS IN OUR AREA  *****

CITY           SKY/WX    TMP DP  RH WIND       PRES   REMARKS
WALHALLA       NOT AVBL
GRAFTON AIRPOR FAIR      68  64  88 N7        29.64S
VALLEY CITY AR FAIR      73  66  78 N12       29.65R
CANDO          NOT AVBL
CAVALIER APRT  FAIR      68  63  83 NE3       29.63R
GWINNER        CLOUDY    75  63  64 N13G21    29.63R
SHEYENNE NWR     N/A     74  62  65 N10       29.95S
ROLLA            N/A     75  52  43 NW18      29.68R
 ***** THE ABOVE OBSERVATIONS ARE NON NWS ARE NOT QUALITY
       CONTROLLED AND MAY MIS-REPORT RAIN FOR SNOW...
$$

  *****  WEATHER ACROSS NORTHERN MINNESOTA  *****

CITY           SKY/WX    TMP DP  RH WIND       PRES   REMARKS
FLAG ISLAND    RAIN      61  57  88 N9        29.63R
WARROAD        RAIN      61  55  82 N3        29.63S
ROSEAU         LGT RAIN  61  55  82 NE5       29.63S
HALLOCK        PTSUNNY   66  63  88 NE6       29.63R
THF RVR FALLS  LGT RAIN  60  59  96 N9        29.61R
BAUDETTE       LGT RAIN  62  61  96 N6        29.59S
WASKISH        DRIZZLE   63  61  94 N5        29.57S
CROOKSTON      CLOUDY    63  63 100 N12       29.62R
STEPHEN NDAWN    N/A     64  61  88 NE8         N/A
GREENBUSH NDAW   N/A     61  61 100 VRB5        N/A
$$
  *****  WEATHER ACROSS CENTRAL AND WEST MINNESOTA  *****

CITY           SKY/WX    TMP DP  RH WIND       PRES   REMARKS
FOSSTON        RAIN      57  57 100 N10       29.60R
BEMIDJI        RAIN      60  59  98 N6        29.56R
PARK RAPIDS    LGT RAIN  65  61  87 N5        29.52S FOG
ELBOW LAKE     MOCLDY    68  61  79 W18G25    29.59R
WADENA         CLOUDY    63  63 100 W9        29.54R
DETROIT LAKES  CLOUDY    64  61  88 NW13G18   29.58R
MOORHEAD       PTSUNNY   70  61  73 N17       29.60R
FERGUS FALLS   FAIR      70  61  73 NW22G30   29.56R
MORRIS MN      FAIR      77  61  57 NW23G31   29.57S HAZE
STAPLES        DRIZZLE   64  63  94 W13       29.53R
$$
  *****  WEATHER ELSEWHERE ACROSS MINNESOTA  *****

CITY           SKY/WX    TMP DP  RH WIND       PRES   REMARKS
DULUTH         LGT RAIN  57  57 100 E14       29.53F VSB 3/4
INTRNTL FALLS  LGT RAIN  62  60  93 E9        29.58S
ELY            LGT RAIN  57  55  94 E8        29.59F
CLOQUET        HVY RAIN  57  55  94 E8        29.51F
WHEATON        FAIR      73  61  64 NW14G23   29.61R
BRAINERD       LGT RAIN  64  63  96 NW6       29.51R FOG
HIBBING        CLOUDY    58  58 100 E7        29.53F
ALEXANDRIA     PTSUNNY   69  60  73 NW26G32   29.58R
SAINT CLOUD    CLOUDY    75  65  70 W17G25    29.51S
MINNEAPOLIS    PTSUNNY   79  66  64 NW17      29.52R
$$

  *****  WEATHER ACROSS SOUTH DAKOTA  *****

CITY           SKY/WX    TMP DP  RH WIND       PRES   REMARKS
SIOUX FALLS    FAIR      84  63  49 NW15G23   29.62R
BROOKINGS      FAIR      82  59  45 NW16G23   29.62S
WATERTOWN      FAIR      80  59  48 NW16      29.62S
HURON          FAIR      87  44  22 NW17G25   29.62S
SISSETON         N/A     77  64  64 N20G26    29.59R
ABERDEEN       FAIR      83  45  26 NW18G25   29.63R
MITCHELL       FAIR      88  54  31 N14       29.63S
PIERRE         FAIR      86  40  19 N13       29.66F
MOBRIDGE       FAIR      85  34  16 N15       29.65S
RAPID CITY     TSTM      78  47  33 SW8       29.75R
$$

  *****  SOME WEATHER IN NEARBY STATES *****

CITY           SKY/WX    TMP DP  RH WIND       PRES   REMARKS
GLASGOW MT     FAIR      76  43  30 SE21      29.67S
GREAT FALLS MT FAIR      79  29  16 NW15      29.75R
CHEYENNE WY    FAIR      78  36  21 S14       29.88F THUNDER
SCOTTSBLUFF NE FAIR      86  46  24 VRB6      29.74F
OMAHA NE       FAIR      91  65  41 NW15      29.63R HX  93
DES MOINES IA  TSTM      72  68  87 S9        29.66F
DAVENPORT IA   NOT AVBL
CHICAGO IL     CLOUDY    78  61  55 S23G32    29.79F
EAU CLAIRE WI  LGT RAIN  71  68  90 S12       29.54F
LA CROSSE WI   FAIR      74  68  81 SE6       29.60S
$$

  *****  SOME NATIONAL WEATHER *****

CITY           SKY/WX    TMP DP  RH WIND       PRES   REMARKS
LA GUARDIA NY  FAIR      80  49  33 W13       30.08R
RALEIGH NC     FAIR      82  54  37 CALM      30.17S
ATLANTA GA     FAIR      85  62  46 E9        30.11R
NEW ORLEANS LA CLOUDY    77  72  84 S9        29.98S
OKLAHOMA CITY  FAIR      89  65  44 S23G33    29.80F HX  91
ALBUQUERQUE NM FAIR      94   9   4 W17       29.94F
SALT LAKE CITY FAIR      90  34  13 N13       29.82S
LOS ANGELES CA FAIR      71  60  68 W13       29.87F
BOISE ID       FAIR      84  25  11 NW16      29.84F
SEATTLE WA     PTSUNNY   66  52  60 SW10      30.06S
$$

*** WEATHER ACROSS MANITOBA...SASKATCHEWAN AND ONTARIO ***
                ***ONTARIO***

CITY           SKY/WX    TMP DP  RH WIND       PRES   REMARKS
GERALDTON      PTSUNNY   73  46  38 S15G23    29.74R
THUNDER BAY    CLOUDY    59  50  72 E15G22    29.66F
SIOUX LOOKOUT  PTSUNNY   75  50  41 SE8       29.62S
TORONTO        CLOUDY    73  54  49 SW13G22   29.99F
BIG TROUT LK   PTSUNNY   59  48  67 SE6       29.84F
PICKLE LAKE    CLOUDY    70  52  52 E12       29.71F
DRYDEN         PTSUNNY   72  54  53 E7        29.62S
KENORA         LGT RAIN  61  59  94 N6        29.64S
$$
                *** MANITOBA***

CITY           SKY/WX    TMP DP  RH WIND       PRES   REMARKS
BRANDON        MOSUNNY   77  50  38 NW18G26   29.64R
DAUPHIN        NOT AVBL
ISLAND LAKE    CLOUDY    54  52  94 E7        29.76S
PILOT MOUND      N/A     75  50  41 NW12G17     N/A
THE PAS        MOSUNNY   59  54  82 N6        29.67R
THOMPSON       LGT RAIN  50  48  93 E10       29.78S
WINNIPEG       CLOUDY    66  63  88 S6        29.63R
LYNN LAKE      RAIN      46  45  93 NE9G21    29.83R FOG
CHURCHILL      MOSUNNY   46  41  81 E17       30.04F
GILLAM         CLOUDY    59  46  63 E9G21     29.87S
$$
                ***SASKATCHEWAN***

CITY           SKY/WX    TMP DP  RH WIND       PRES   REMARKS
ESTEVAN        PTSUNNY   75  50  41 N9        29.71F
KINDERSLEY     PTSUNNY   57  52  82 N12G18    29.71F
LLOYDMINSTER   CLOUDY    61  52  72 N9        29.72R
PRINCE ALBERT  PTSUNNY   64  54  68 N9        29.71R
REGINA         PTSUNNY   72  46  40 W5        29.71S
YORKTON        SUNNY     73  48  40 NW14G23   29.68R
N. BATTLEFORD  LGT RAIN  59  52  77 VRB2      29.73R
LA RONGE       CLOUDY    50  45  81 NE12G21   29.76R
SASKATOON      TSTM      70  48  46 NW15      29.69S
SWIFT CURRENT  MOSUNNY   73  45  35 E9G21     29.65F
$$
NOTE: THESE ARE AUTOMATED STATIONS WITH LIMITED QUALITY CONTROL
      "FAIR" INDICATES FEW OR NO CLOUDS BELOW 12,000 FEET WITH NO
      SIGNIFICANT WEATHER AND/OR OBSTRUCTIONS TO VISIBILITY.
      SKY/WX - SKY CONDITION AND SIGNIFICANT WEATHER.
      TMP - AIR TEMPERATURE.    DP   - DEWPOINT TEMPERATURE.
      RH  - RELATIVE HUMIDITY.  PRES - PRESSURE.
      HX  - HEAT INDEX.         WCI  - WIND CHILL INDEX.
$




USA.gov is the U.S. government's official web portal to all federal, state and local government web resources and services.